BEIJING 1 (TSINGHUA)

Satellite information

Favourite Embed

Satellite Type and Status

PAYLOADIN ORBIT

Key statistics

Satellite BEIJING 1 (TSINGHUA) at a glance.

Uptime

7303

Days in orbit

Revolutions

≈ 14.6

Per day

Orbit

SSO

Sun Synchronous Orbit

Inclination

98.3

Latest

Satellite identification and parameters

Extended collection of information and parameters for BEIJING 1 (TSINGHUA).

Object identification

Identified? True

Debris? False

Object name: BEIJING 1 (TSINGHUA)

International designator: 2005-043A

Object number (NORAD): 28890

Object ID (CCSDS): 28890

Country: PEOPLES REPUBLIC OF CHINA (PRC)

Current information (Y/N): Y

RCS size: MEDIUM

Orbital parameters

Period: 98.408 minutes

Inclination: 98.2619 deg

SMA: 7060.688 km

Apoapsis: 692.134 km

Periapsis: 672.973 km

RAAN: 65.4213 deg

Eccentricy: 0.00135687

Argument of periapsis: 300.1289 deg

Mean anomaly: 59.8568 deg

Mean motion: 14.63296039 rev/day

Mean motion (dot): 0.00000622 rev/day2

B* drag term: 0.00012990612 1/REarth

Two-line elements (TLE)

Creation date: Oct. 25, 2025, 3:11 a.m.

Reference frame: TEME

Reference center: EARTH

Epoch: Oct. 25, 2025, 12:22 a.m. UTC

TLE line 0: 0 BEIJING 1 (TSINGHUA)

TLE line 1: 1 28890U 05043A 25298.01565164 .00000622 00000-0 12991-3 0 9998

TLE line 2: 2 28890 98.2619 65.4213 0013569 300.1289 59.8568 14.63296039 66255

Live tracking on map

Real-time ground track for satellite BEIJING 1 (TSINGHUA).

In-orbit conjunctions

There are no conjunctions computed for BEIJING 1 (TSINGHUA), at the moment. Check back to stay up to date, as we update our databases every day.

Go to all conjunctions

Associated space launch

Civilian surveillance satellite.

BEIJING 1 (TSINGHUA) was lifted into orbit during the mission ‘Kosmos-3M | Beijing-1’, on board a Kosmos-3M space rocket.

The launch took place on Oct. 27, 2005, 6:52 a.m. from 132/1 (132L).

For more information about the launch, click the button.

Launch to space Kosmos-3M | Beijing-1
Kosmos-3M | Beijing-1

Agency: N/A

Status: Launch Successful

Launch date: Oct. 27, 2005, 6:52 a.m. UTC

Rocket: Kosmos-3M

Launch pad: 132/1 (132L)

Location: Plesetsk Cosmodrome, Russian Federation

...

Latest news about this satellite

There are no fresh news available about this satellite. Check back as we update our databases every day.


Newsletter sign-up

Weekly statistics, charts and insights to help you stay on top of the space industry.